Flag for Russia Weather past 2 weeks in Orenburg, Russia

Now
25 °F

Snow flurries. Overcast.


Feels Like: 11 °F
Forecast: 20 / 26 °F
Wind: 17 mph from Northwest

Location: Orenburg / Tsentralny

Current Time: Oct 23, 2014 at 11:11:08 AM

Latest Report: Oct 23, 2014 at 10:30 AM


Visibility: 3 mi

Pressure: 29.86 "Hg

Humidity: 63%

Dew point: 14 °F

Location of OrenburgLocation

Historic Weather in Orenburg — Graph

°F

Orenburg temperature yesterday

Maximum temperature yesterday: 52 °F (at 3:30 PM)
Minimum temperature yesterday: 41 °F (at 11:30 PM)
Average temperature yesterday: 47 °F

Past Weeks' High & Low Weather Summary

 TemperatureHumidityPressure
High70 °F (Oct 17, 3:00 PM)100% (Oct 9, 8:30 AM)30.57 "Hg (Oct 9, 8:30 AM)
Low21 °F (Oct 20, 8:30 AM)15% (Oct 17, 4:00 PM)29.45 "Hg (Oct 18, 5:00 PM)
Average45 °F71%29.96 "Hg
* Reported Oct 8 10:00 AM — Oct 23 10:00 AM, Orenburg, Weather by CustomWeather, © 2014

Note: Actual official high and low records may vary slightly from our data, if they occured in-between our weather recording intervals... More about our weather records

Advertising

Orenburg weather history for previous 24 hours

 ConditionsComfort  
Time TempWeatherWind HumidityBarometerVisibility
10:00 AM
Oct 23
27 °FOvercast.15 mph64%29.83 "HgN/A
9:30 AM27 °FOvercast.15 mph69%29.83 "HgN/A
9:00 AM27 °FOvercast.17 mph74%29.80 "HgN/A
8:30 AM28 °FOvercast.13 mph74%29.80 "HgN/A
8:00 AM30 °FOvercast.15 mph75%29.77 "HgN/A
7:30 AM30 °FOvercast.13 mph75%29.77 "HgN/A
7:00 AM30 °FOvercast.13 mph80%29.77 "HgN/A
6:30 AM30 °FOvercast.15 mph80%29.74 "HgN/A
6:00 AM32 °FOvercast.13 mph75%29.74 "HgN/A
5:30 AM32 °FOvercast.10 mph69%29.71 "HgN/A
5:00 AM32 °FOvercast.13 mph69%29.71 "HgN/A
4:30 AM34 °FOvercast.15 mph65%29.71 "HgN/A
4:00 AM34 °FOvercast.13 mph75%29.71 "HgN/A
3:30 AM34 °FOvercast.13 mph75%29.71 "HgN/A
3:00 AM34 °FOvercast.3 mph75%29.68 "HgN/A
2:30 AM34 °FOvercast.3 mph75%29.68 "HgN/A
2:00 AM34 °FOvercast.6 mph81%29.68 "HgN/A
1:30 AM36 °FOvercast.10 mph75%29.68 "HgN/A
1:00 AM36 °FOvercast.10 mph87%29.65 "HgN/A
12:30 AM37 °FPassing clouds.17 mph75%29.65 "HgN/A
12:00 AM37 °FOvercast.13 mph81%29.65 "HgN/A
11:30 PM
Oct 22
41 °FOvercast.17 mph76%29.62 "HgN/A
11:00 PM43 °FOvercast.13 mph87%29.62 "HgN/A
10:30 PM45 °FOvercast.15 mph81%29.59 "HgN/A
10:00 PM46 °FOvercast.20 mph82%29.59 "HgN/A
9:30 PM48 °FPassing clouds.20 mph87%29.56 "HgN/A
9:00 PM48 °FSprinkles. Passing clouds.13 mph87%29.56 "Hg2 mi
8:30 PM50 °FSprinkles. Passing clouds.13 mph88%29.56 "Hg2 mi
7:30 PM50 °FFog.13 mph94%29.53 "Hg2 mi
7:00 PM50 °FFog.10 mph94%29.53 "Hg2 mi
6:30 PM50 °FFog.10 mph94%29.53 "Hg2 mi
6:00 PM50 °FLight rain. Fog.10 mph94%29.53 "Hg2 mi
5:30 PM50 °FLight rain. Fog.13 mph94%29.56 "Hg2 mi
5:00 PM50 °FLight rain. Fog.10 mph94%29.56 "Hg2 mi
4:30 PM50 °FRain. Fog.10 mph94%29.56 "Hg1 mi
4:00 PM50 °FRain. Fog.13 mph94%29.56 "Hg1 mi
3:30 PM52 °FOvercast.15 mph88%29.56 "HgN/A
3:00 PM50 °FFog.10 mph94%29.56 "Hg2 mi
2:30 PM50 °FLight rain. Fog.10 mph94%29.56 "Hg1 mi
2:00 PM50 °FLight rain. Fog.13 mph94%29.56 "Hg1 mi
1:30 PM50 °FLight rain. Fog.13 mph94%29.56 "Hg3 mi
1:00 PM50 °FLight rain. Fog.13 mph94%29.56 "Hg1 mi
12:30 PM48 °FLight rain. Fog.13 mph100%29.56 "Hg2 mi
12:00 PM48 °FLight rain. Fog.13 mph94%29.56 "Hg2 mi
11:30 AM48 °FLight rain. Low clouds.15 mph94%29.56 "Hg2 mi
11:00 AM48 °FLow clouds.15 mph94%29.56 "HgN/A
Weather by CustomWeather, © 2014

See weather overviewHow to use our weather pages